Tillbaka till svenska Fidonet
English   Information   Debug  
FILM   0/18
FNEWS_PUBLISH   4926
FN_SYSOP   42201
FN_SYSOP_OLD1   71952
FTP_FIDO   0/2
FTSC_PUBLIC   0/13972
FUNNY   0/4886
GENEALOGY.EUR   0/71
GET_INFO   105
GOLDED   0/408
HAM   6178/16660
HOLYSMOKE   0/6791
HOT_SITES   0/1
HTMLEDIT   0/71
HUB203   466
HUB_100   264
HUB_400   39
HUMOR   0/29
IC   0/2851
INTERNET   0/424
INTERUSER   0/3
IP_CONNECT   719
JAMNNTPD   0/233
JAMTLAND   0/47
KATTY_KORNER   0/41
LAN   0/16
LINUX-USER   0/19
LINUXHELP   0/1155
LINUX   0/22300
LINUX_BBS   0/957
mail   18.68
mail_fore_ok   249
MENSA   0/341
MODERATOR   0/102
MONTE   0/992
MOSCOW_OKLAHOMA   0/1245
MUFFIN   0/783
MUSIC   0/321
N203_STAT   938
N203_SYSCHAT   313
NET203   321
NET204   69
NET_DEV   0/10
NORD.ADMIN   0/101
NORD.CHAT   0/2572
NORD.FIDONET   189
NORD.HARDWARE   0/28
NORD.KULTUR   0/114
NORD.PROG   0/32
NORD.SOFTWARE   0/88
NORD.TEKNIK   0/58
NORD   0/453
OCCULT_CHAT   0/93
OS2BBS   0/787
OS2DOSBBS   0/580
OS2HW   0/42
OS2INET   0/37
OS2LAN   0/134
OS2PROG   0/36
OS2REXX   0/113
OS2USER-L   207
OS2   0/4830
OSDEBATE   6249/18996
PASCAL   0/490
PERL   0/457
PHP   0/45
POINTS   0/405
POLITICS   0/29554
POL_INC   0/14731
PSION   103
R20_ADMIN   1133
R20_AMATORRADIO   0/2
R20_BEST_OF_FIDONET   16
R20_CHAT   0/896
R20_DEPP   0/3
R20_DEV   400
R20_ECHO2   1830
R20_ECHOPRES   0/35
R20_ESTAT   0/719
R20_FIDONETPROG...
...RAM.MYPOINT
  0/2
R20_FIDONETPROGRAM   0/22
R20_FIDONET   0/248
R20_FILEFIND   0/24
R20_FILEFOUND   0/22
R20_HIFI   0/3
R20_INFO2   3723
R20_INTERNET   0/12940
R20_INTRESSE   0/60
R20_INTR_KOM   0/99
R20_KANDIDAT.CHAT   42
R20_KANDIDAT   28
R20_KOM_DEV   112
R20_KONTROLL   0/13360
R20_KORSET   0/18
R20_LOKALTRAFIK   0/24
R20_MODERATOR   0/1852
R20_NC   76
R20_NET200   245
R20_NETWORK.OTH...
...ERNETS
  0/13
R20_OPERATIVSYS...
...TEM.LINUX
  0/44
R20_PROGRAMVAROR   0/1
R20_REC2NEC   534
R20_SFOSM   0/341
R20_SF   0/108
R20_SPRAK.ENGLISH   0/1
R20_SQUISH   107
R20_TEST   2
R20_WORST_OF_FIDONET   20
RAR   0/9
RA_MULTI   106
RA_UTIL   0/162
REGCON.EUR   0/2068
REGCON   0/13
SCIENCE   0/1206
SF   0/239
SHAREWARE_SUPPORT   0/5146
SHAREWRE   0/14
SIMPSONS   0/169
STATS_OLD1   0/2539.065
STATS_OLD2   0/2530
STATS_OLD3   0/2395.095
STATS_OLD4   0/1692.25
SURVIVOR   0/495
SYSOPS_CORNER   0/3
SYSOP   0/84
TAGLINES   0/112
TEAMOS2   0/4530
TECH   0/2617
TEST.444   0/105
TRAPDOOR   0/19
TREK   0/755
TUB   0/290
UFO   0/40
UNIX   0/1316
USA_EURLINK   0/102
USR_MODEMS   0/1
VATICAN   0/2740
VIETNAM_VETS   0/14
VIRUS   0/378
VIRUS_INFO   0/201
VISUAL_BASIC   0/473
WHITEHOUSE   0/5187
WIN2000   0/101
WIN32   0/30
WIN95   0/4291
WIN95_OLD1   0/70272
WINDOWS   0/1517
WWB_SYSOP   0/419
WWB_TECH   0/810
ZCC-PUBLIC   0/1
ZEC   4

 
4DOS   0/134
ABORTION   0/7
ALASKA_CHAT   0/506
ALLFIX_FILE   0/1313
ALLFIX_FILE_OLD1   0/7997
ALT_DOS   0/152
AMATEUR_RADIO   0/1039
AMIGASALE   0/14
AMIGA   0/331
AMIGA_INT   0/1
AMIGA_PROG   0/20
AMIGA_SYSOP   0/26
ANIME   0/15
ARGUS   0/924
ASCII_ART   0/340
ASIAN_LINK   0/651
ASTRONOMY   0/417
AUDIO   0/92
AUTOMOBILE_RACING   0/105
BABYLON5   0/17862
BAG   135
BATPOWER   0/361
BBBS.ENGLISH   0/382
BBSLAW   0/109
BBS_ADS   0/5290
BBS_INTERNET   0/507
BIBLE   0/3563
BINKD   0/1119
BINKLEY   0/215
BLUEWAVE   0/2173
CABLE_MODEMS   0/25
CBM   0/46
CDRECORD   0/66
CDROM   0/20
CLASSIC_COMPUTER   0/378
COMICS   0/15
CONSPRCY   0/899
COOKING   41444
COOKING_OLD1   0/24719
COOKING_OLD2   0/40862
COOKING_OLD3   0/37489
COOKING_OLD4   0/35496
COOKING_OLD5   9370
C_ECHO   0/189
C_PLUSPLUS   0/31
DIRTY_DOZEN   0/201
DOORGAMES   0/2285
DOS_INTERNET   0/196
duplikat   6102
ECHOLIST   0/18295
EC_SUPPORT   0/318
ELECTRONICS   0/359
ELEKTRONIK.GER   1534
ENET.LINGUISTIC   0/13
ENET.POLITICS   0/4
ENET.SOFT   0/11701
ENET.SYSOP   34296
ENET.TALKS   0/32
ENGLISH_TUTOR   0/2000
EVOLUTION   0/1335
FDECHO   0/217
FDN_ANNOUNCE   0/7068
FIDONEWS   25062
FIDONEWS_OLD1   0/49742
FIDONEWS_OLD2   0/35949
FIDONEWS_OLD3   0/30874
FIDONEWS_OLD4   0/37224
FIDO_SYSOP   12922
FIDO_UTIL   0/180
FILEFIND   0/209
FILEGATE   0/212
Möte HAM, 16660 texter
 lista första sista föregående nästa
Text 5533, 1091 rader
Skriven 2012-09-27 23:30:50 av Amsat List (1:323/120.0)
Ärende: [keps] orb12271.amsa
============================
[keps] orb12271.amsa

Sender: keps-bounces@amsat.org
Return-Path: <keps-bounces@amsat.org>
X-Rcpt: craig.healy@chowda.com
X-UIDL: 1348802236.16994

SB KEPS @ AMSAT  $ORB12271.O
Orbital Elements  12271.OSCAR

HR AMSAT ORBITAL ELEMENTS FOR OSCAR SATELLITES
FROM WA5QGD FORT WORTH,TX September 27, 2012
Send SUBSCRIBE KEPS/UNSUBSCRIBE KEPS to majordomo@amsat.org only
BID: ORB12271.O
TO ALL RADIO AMATEURS BT

Satellite: AO-07
Catalog number: 07530
Epoch time:      12270.57813027
Element set:     490
Inclination:      101.4110 deg
RA of node:       263.9027 deg
Eccentricity:    0.0012152
Arg of perigee:   083.4508 deg
Mean anomaly:     276.7938 deg
Mean motion:   12.53591475 rev/day
Decay rate:       -2.7e-07 rev/day^2
Epoch rev:           73275
Checksum:              285

Satellite: FO-29
Catalog number: 24278
Epoch time:      12271.82839406
Element set:     942
Inclination:      098.5869 deg
RA of node:       359.0652 deg
Eccentricity:    0.0351055
Arg of perigee:   123.5602 deg
Mean anomaly:     239.9579 deg
Mean motion:   13.52989509 rev/day
Decay rate:       -5.3e-07 rev/day^2
Epoch rev:           79583
Checksum:              362

Satellite: SO-33
Catalog number: 25509
Epoch time:      12271.62917418
Element set:     330
Inclination:      031.4328 deg
RA of node:       113.9266 deg
Eccentricity:    0.0351940
Arg of perigee:   019.6898 deg
Mean anomaly:     341.6941 deg
Mean motion:   14.28820172 rev/day
Decay rate:       5.87e-06 rev/day^2
Epoch rev:           72731
Checksum:              309

Satellite: RS-22
Catalog number: 27939
Epoch time:      12271.58008736
Element set:     762
Inclination:      097.8037 deg
RA of node:       107.1195 deg
Eccentricity:    0.0012736
Arg of perigee:   305.0472 deg
Mean anomaly:     054.9530 deg
Mean motion:   14.64141089 rev/day
Decay rate:       6.65e-06 rev/day^2
Epoch rev:           48086
Checksum:              314

Satellite: VO-52
Catalog number: 28650
Epoch time:      12270.66254412
Element set:    0219
Inclination:      097.5907 deg
RA of node:       296.6291 deg
Eccentricity:    0.0027561
Arg of perigee:   068.2413 deg
Mean anomaly:     292.1719 deg
Mean motion:   14.83198654 rev/day
Decay rate:      1.676e-05 rev/day^2
Epoch rev:           40001
Checksum:              313

Satellite: HO-68
Catalog number: 36122
Epoch time:      12271.74934125
Element set:     866
Inclination:      100.3496 deg
RA of node:       328.9750 deg
Eccentricity:    0.0007161
Arg of perigee:   234.5581 deg
Mean anomaly:     125.4862 deg
Mean motion:   13.16298241 rev/day
Decay rate:       -4.4e-07 rev/day^2
Epoch rev:           13388
Checksum:              304

/EX
SB KEPS @ AMSAT  $ORB12271.D
Orbital Elements  12271.MICROS

HR AMSAT ORBITAL ELEMENTS FOR THE MICROSATS
FROM WA5QGD FORT WORTH,TX September 27, 2012
Send SUBSCRIBE KEPS/UNSUBSCRIBE KEPS to majordomo@amsat.org only
BID: ORB12271.D
TO ALL RADIO AMATEURS BT

Satellite: UO-11
Catalog number: 14781
Epoch time:      12270.76903177
Element set:     986
Inclination:      097.9436 deg
RA of node:       329.3434 deg
Eccentricity:    0.0010133
Arg of perigee:   064.6835 deg
Mean anomaly:     295.5428 deg
Mean motion:   14.80569473 rev/day
Decay rate:       5.81e-06 rev/day^2
Epoch rev:           53496
Checksum:              337

Satellite: AO-16
Catalog number: 20439
Epoch time:      12270.88658667
Element set:     567
Inclination:      098.4378 deg
RA of node:       211.4521 deg
Eccentricity:    0.0010065
Arg of perigee:   216.0048 deg
Mean anomaly:     144.0454 deg
Mean motion:   14.32087048 rev/day
Decay rate:       1.78e-06 rev/day^2
Epoch rev:           18455
Checksum:              305

Satellite: LO-19
Catalog number: 20442
Epoch time:      12270.89422491
Element set:    0499
Inclination:      098.4053 deg
RA of node:       214.1148 deg
Eccentricity:    0.0011346
Arg of perigee:   206.3191 deg
Mean anomaly:     153.7410 deg
Mean motion:   14.32303320 rev/day
Decay rate:       1.84e-06 rev/day^2
Epoch rev:           18474
Checksum:              271

Satellite: AO-27
Catalog number: 22825
Epoch time:      12270.87959382
Element set:    0216
Inclination:      098.5823 deg
RA of node:       212.1494 deg
Eccentricity:    0.0008427
Arg of perigee:   347.2940 deg
Mean anomaly:     012.8025 deg
Mean motion:   14.29489027 rev/day
Decay rate:       2.12e-06 rev/day^2
Epoch rev:           99100
Checksum:              306

Satellite: IO-26
Catalog number: 22826
Epoch time:      12270.86092664
Element set:    0973
Inclination:      098.5771 deg
RA of node:       212.4764 deg
Eccentricity:    0.0008910
Arg of perigee:   341.2498 deg
Mean anomaly:     018.8354 deg
Mean motion:   14.29764904 rev/day
Decay rate:       1.59e-06 rev/day^2
Epoch rev:           99113
Checksum:              335

Satellite: GO-32
Catalog number: 25397
Epoch time:      12271.47328218
Element set:     884
Inclination:      098.3749 deg
RA of node:       245.2111 deg
Eccentricity:    0.0001534
Arg of perigee:   023.1954 deg
Mean anomaly:     336.9292 deg
Mean motion:   14.23294660 rev/day
Decay rate:       1.43e-06 rev/day^2
Epoch rev:           73857
Checksum:              311

Satellite: NO-44
Catalog number: 26931
Epoch time:      12271.86728342
Element set:     146
Inclination:      067.0507 deg
RA of node:       215.6909 deg
Eccentricity:    0.0006254
Arg of perigee:   253.0397 deg
Mean anomaly:     107.0038 deg
Mean motion:   14.29834216 rev/day
Decay rate:       2.07e-06 rev/day^2
Epoch rev:           57392
Checksum:              300

